User: anonymous   Login
Location: Emblem
(62.4273°N, 6.4710°E)
Time: 07:12:01
(UTC+02:00)
Language:

ISS - Orbit

View from above orbital plane
View from above orbital plane
View from above satellite
View from above satellite

Ground track
Ground track

The orbit data is extracted from the following two-line orbital elements,

1 25544U 98067A   24108.06679608  .00019473  00000-0  34469-3 0  9990
2 25544  51.6384 258.4693 0004986  70.1481  42.8477 15.50291806449066
Epoch (UTC): 17 April 2024 01:36:11
Eccentricity: 0.0004986
inclination: 51.6384°
perigee height: 412 km
apogee height: 419 km
right ascension of ascending node: 258.4693°
argument of perigee: 70.1481°
revolutions per day: 15.50291806
mean anomaly at epoch: 42.8477°
orbit number at epoch: 44906

The dashed part of the orbit path shows where the satellite is in the earth's shadow,  

DLR